Regional Weather Roundup
Issued by NWS Goodland, KS

Home | Current Version | Previous Version | Graphics & Text | Print | Product List | Glossary On
Versions: 1 2 3 4 5 6 7 8 9 10 11 12 13 14 15 16 17 18 19 20 21 22 23 24 25 26 27 28 29 30 31 32 33 34 35 36 37 38 39 40 41 42 43 44 45 46 47 48 49 50
000
ASUS43 KGLD 280659
RWRGLD

GOODLAND FORECAST AREA HOURLY WEATHER ROUNDUP
NATIONAL WEATHER SERVICE GOODLAND KS
1200 AM MST SUN DEC 28 2014

...OFFICIAL OBSERVATIONS...

CITY           SKY/WX    TMP DP  RH WIND       PRES   REMARKS
GOODLAND KS    PTCLDY    17  11  77 SW9       30.11F
HILL CITY KS   PTCLDY    11   6  81 SW6       30.20F
IMPERIAL NEB   MOCLDY    -1  -5  82 CALM      30.12F
MCCOOK NEB     MOCLDY     7   4  87 W10       30.16F WCI  -8
AKRON CO       PTCLDY    11   6  81 W13       30.03F WCI  -4
BURLINGTON CO  PTCLDY    10   4  76 SW10      30.10F WCI  -4
LIMON CO       PTCLDY     0  -3  87 CALM      30.04F
$$

...UNOFFICIAL OBSERVATIONS...

CITY           SKY/WX    TMP DP  RH WIND       PRES   REMARKS
COLBY KS       CLEAR      7   5  92 SW8       30.14F
NORTON KS      CLEAR      9   3  78 SW8       30.15F
SHARON SPRINGS   N/A     10   7  87 SW9         N/A
TRIBUNE KS     PTCLDY    12  10  92 SW9       30.17F
KIT CARSON CO    N/A      9   5  84 MISG        N/A
YUMA CO          N/A      7   1  76 CALM        N/A
$$


USA.gov is the U.S. government's official web portal to all federal, state and local government web resources and services.